Regional Weather Roundup
Issued by NWS

Home | Current Version | Previous Version | Graphics & Text | Print | Product List | Glossary On
Versions: 1 2 3 4 5 6 7 8 9 10 11 12 13 14 15 16 17 18 19 20 21 22 23 24 25 26 27 28 29 30 31 32 33 34 35 36 37 38 39 40 41 42 43 44 45 46 47 48 49 50
000
ASUS43 KTOP 180208
RWRKS

WEATHER ROUNDUP FOR KANSAS
NATIONAL WEATHER SERVICE GOODLAND KS
900 PM CDT THU AUG 17 2017

NOTE:  "FAIR" INDICATES FEW OR NO CLOUDS BELOW 12,000 FEET WITH NO
SIGNIFICANT WEATHER AND/OR OBSTRUCTIONS TO VISIBILITY.

KSZ001>006-013>018-027>032-041>047-180300-
NORTHWEST KANSAS

CITY           SKY/WX    TMP DP  RH WIND       PRES   REMARKS
GOODLAND       CLEAR     73  63  70 CALM      30.00R
HAYS           CLEAR     75  58  55 SE10      29.96S
HILL CITY      CLEAR     76  57  51 E6        29.96R
RUSSELL        CLEAR     76  56  49 SE9       29.95F
$$

KSZ061>065-074>080-084>089-180300-
SOUTHWEST KANSAS

CITY           SKY/WX    TMP DP  RH WIND       PRES   REMARKS
DODGE CITY     CLOUDY    80  57  45 SE14      30.00S
ELKHART          N/A     62  60  93 SE8         N/A
GARDEN CITY    CLOUDY    79  60  52 SE14      29.97F
LIBERAL        CLOUDY    81  62  52 E6        30.05R
PRATT          CLOUDY    79  56  45 S10       30.01R
$$

KSZ066>073-081>083-090>101-180300-
SOUTHEAST KANSAS

CITY           SKY/WX    TMP DP  RH WIND       PRES   REMARKS
CHANUTE        CLEAR     71  65  81 S3        29.98R
COFFEYVILLE    CLEAR     72  67  84 CALM      29.97R
HUTCHINSON     CLEAR     74  59  59 SE3       29.98R
MEDICINE LODGE   N/A     79  59  50 SE6       29.99S
NEWTON         CLEAR     73  63  70 S8        29.99S
PARSONS        LGT RAIN  69  66  90 CALM      29.99R
WICHITA INTL   CLOUDY    75  63  66 S9        29.98R
WICHITA JABRA  CLEAR     76  62  62 S6        29.98S
WICHITA MCCONL CLOUDY    77  60  56 S5        29.99R
WINFIELD       CLEAR     73  64  73 S3        30.00R
$$

KSZ007>012-019>026-033>040-048>060-102>105-180300-
NORTHEAST KANSAS

CITY           SKY/WX    TMP DP  RH WIND       PRES   REMARKS
CONCORDIA      CLEAR     72  64  76 S8        29.94S
EMPORIA        CLEAR     71  63  75 S5        29.97R
LAWRENCE       CLEAR     68  67  96 CALM      29.94R
MANHATTAN      CLEAR     70  64  81 CALM      29.94S
MARYSVILLE     CLEAR     70  61  73 CALM      29.94S
OLATHE IND     CLEAR     72  62  71 SW7       29.95S
OLATHE EXE     CLEAR     73  64  73 SW5       29.95R
SALINA         CLEAR     77  58  51 S5        29.95S
TOPEKA BILLARD CLEAR     75  62  64 SW6       29.94R
TOPEKA FORBES  CLEAR     73  65  75 SW7       29.95R
$$




USA.gov is the U.S. government's official web portal to all federal, state and local government web resources and services.